User: anonymous   Login
Location: Arcones
(41.1182°N, 3.7238°W)
Time: 08:55:10
(UTC+00:00)
Language:

IRS-P3 - Orbit

View from above orbital plane
View from above orbital plane
View from above satellite
View from above satellite

Ground track
Ground track

The orbit is defined by the following mean orbital elements,

1 23827U          26039.06529258 +.00000000 +00000-0 +90302-4 0 00000
2 23827  99.0399  59.0696 0002642 324.3854  35.7147 14.23690596    03
Epoch (UTC): 08 February 2026 01:34:01
Eccentricity: 0.0002642
inclination: 99.0399°
perigee height: 811 km
apogee height: 815 km
right ascension of ascending node: 59.0696°
argument of perigee: 324.3854°
revolutions per day: 14.23690596
mean anomaly at epoch: 35.7147°

The dashed part of the orbit path shows where the satellite is in the earth's shadow,  

DLR